SCP
0 0 0 0 0 0 0 0 -0 0 0 0 0 0 0 0 -0 -0 0 0 0 0
0 0 0 0 0 0 0 0 0 -0 0 0 0 0 -0 0 0 0 0 0 0 0
0 0 0 0 0 0 0 0 0 0 0 0 0 0 0 -0 -0 0 0 0 0 0
0 0 0 0 0 0 0 0 -0 0 0 0 -0 -0 0 0 -0 -0 0 0 0 0
0 0 0 0 0 0 -0 0 0 0 0 0 0 -0 0 0 -0 -0 -0 0 0 0
0 0 0 0 0 0 0 -0 0 0 0 -0 0 -0 0 0 -0 0 0 -0 0 0
0 0 0 0 0 0 0 -0 0 0 0 0 0 -0 -0 0 0 0 -0 0 0 0
0 0 0 0 0 0 0 -0 -0 0 0 -0 0 -0 0 -0 0 0 -0 0 0 0
0 0 0 0 0 0 0 -0 -0 -0 0 -0 -0 -0 0 -0 -0 -0 -0 0 0 0
0 0 0 0 0 0 0 0 0 0 0 -0 -0 -0 -0 0 -0 -0 -0 -0 0 0
0 0 0 0 0 0 0 0 0 0 0 -0 -0 0 -0 0 0 -0 -0 -0 -0 0
0 0 0 0 0 0 0 0 0 0 0 0 0 -0 -0 -0 -0 -0 -0 -0 -0 0
0 0 0 0 0 0 0 0 0 0 0 0 0 0 0 0 0 0 0 0 0 0
0 0 0 0 0 0 0 0 0 0 0 0 0 0 0 0 0 0 0 0 0 0
Wind_Speed_500mb
9 8 7 7 3 3 6 2 4 8 14 15 19 18 19 14 13 17 18 19 14 30
10 10 7 8 5 4 3 6 2 4 10 13 18 18 20 17 18 20 18 14 15 25
11 11 7 6 5 6 6 5 6 1 6 12 15 15 16 20 20 18 17 19 28 38
13 13 10 7 5 4 5 4 9 2 2 9 9 9 10 18 18 16 21 22 27 38
15 17 15 11 9 7 6 6 9 3 4 9 12 13 16 18 20 26 23 26 35 56
15 19 17 14 10 10 10 11 11 6 7 9 11 15 19 22 29 23 24 32 50 26
15 20 19 16 11 10 11 13 13 9 8 14 15 13 21 24 26 22 22 35 35 30
16 21 23 19 14 11 14 17 16 15 12 13 15 14 18 30 29 20 25 31 33 29
18 20 24 21 17 12 14 18 21 21 21 16 21 22 21 30 32 32 44 43 42 39
18 20 23 23 18 14 16 17 21 28 26 18 25 24 28 28 42 42 50 41 36 40
21 21 23 23 16 15 17 18 27 32 25 23 27 29 28 33 47 43 43 34 34 28
21 24 25 19 17 19 20 24 29 25 25 26 24 34 30 32 36 42 41 36 31 27
22 25 27 22 20 24 25 29 26 25 24 32 30 37 33 36 35 36 38 36 34 27
25 24 30 27 25 30 31 32 31 26 26 29 36 37 38 38 37 34 34 39 38 33
Wind_Direction_500mb
225 221 214 226 154 339 318 267 35 26 33 28 28 30 40 83 132 169 160 161 153 148
217 232 227 241 208 113 295 277 316 31 34 43 41 49 70 107 101 135 155 157 168 162
221 227 223 247 205 142 135 273 274 26 32 78 59 59 80 105 120 132 141 160 164 155
233 220 216 202 226 215 177 221 258 250 53 96 59 83 136 112 142 133 156 164 165 174
235 225 216 213 239 245 241 197 254 240 154 111 90 98 144 128 126 136 133 160 169 154
239 230 218 221 232 255 253 217 239 222 173 138 120 125 143 137 130 133 138 156 155 176
243 230 227 228 232 254 241 226 204 210 183 165 142 151 162 157 155 151 155 164 172 163
245 227 230 235 239 242 242 221 208 195 185 165 165 162 161 169 167 159 154 158 169 156
241 230 231 232 246 239 228 218 206 179 176 166 161 154 159 157 161 151 142 143 144 149
234 227 232 233 233 233 219 212 189 168 170 164 163 159 157 155 154 153 154 155 161 158
238 218 228 238 218 220 203 192 173 168 173 174 173 165 168 166 166 169 176 174 171 178
239 222 224 230 207 186 190 178 167 173 178 178 183 174 173 169 172 178 179 183 193 188
236 233 215 217 206 188 179 175 180 181 181 183 186 182 182 183 187 191 192 186 185 179
231 231 220 209 206 193 187 189 193 194 189 186 187 190 190 191 194 194 187 196 190 188
Wind_Speed_850mb
9 8 7 7 3 3 6 2 4 8 14 15 19 18 19 14 13 17 18 19 14 30
10 10 7 8 5 4 3 6 2 4 10 13 18 18 20 17 18 20 18 14 15 25
11 11 7 6 5 6 6 5 6 1 6 12 15 15 16 20 20 18 17 19 28 38
13 13 10 7 5 4 5 4 9 2 2 9 9 9 10 18 18 16 21 22 27 38
15 17 15 11 9 7 6 6 9 3 4 9 12 13 16 18 20 26 23 26 35 56
15 19 17 14 10 10 10 11 11 6 7 9 11 15 19 22 29 23 24 32 50 26
15 20 19 16 11 10 11 13 13 9 8 14 15 13 21 24 26 22 22 35 35 30
16 21 23 19 14 11 14 17 16 15 12 13 15 14 18 30 29 20 25 31 33 29
18 20 24 21 17 12 14 18 21 21 21 16 21 22 21 30 32 32 44 43 42 39
18 20 23 23 18 14 16 17 21 28 26 18 25 24 28 28 42 42 50 41 36 40
21 21 23 23 16 15 17 18 27 32 25 23 27 29 28 33 47 43 43 34 34 28
21 24 25 19 17 19 20 24 29 25 25 26 24 34 30 32 36 42 41 36 31 27
22 25 27 22 20 24 25 29 26 25 24 32 30 37 33 36 35 36 38 36 34 27
25 24 30 27 25 30 31 32 31 26 26 29 36 37 38 38 37 34 34 39 38 33
Wind_Direction_850mb
225 221 214 226 154 339 318 267 35 26 33 28 28 30 40 83 132 169 160 161 153 148
217 232 227 241 208 113 295 277 316 31 34 43 41 49 70 107 101 135 155 157 168 162
221 227 223 247 205 142 135 273 274 26 32 78 59 59 80 105 120 132 141 160 164 155
233 220 216 202 226 215 177 221 258 250 53 96 59 83 136 112 142 133 156 164 165 174
235 225 216 213 239 245 241 197 254 240 154 111 90 98 144 128 126 136 133 160 169 154
239 230 218 221 232 255 253 217 239 222 173 138 120 125 143 137 130 133 138 156 155 176
243 230 227 228 232 254 241 226 204 210 183 165 142 151 162 157 155 151 155 164 172 163
245 227 230 235 239 242 242 221 208 195 185 165 165 162 161 169 167 159 154 158 169 156
241 230 231 232 246 239 228 218 206 179 176 166 161 154 159 157 161 151 142 143 144 149
234 227 232 233 233 233 219 212 189 168 170 164 163 159 157 155 154 153 154 155 161 158
238 218 228 238 218 220 203 192 173 168 173 174 173 165 168 166 166 169 176 174 171 178
239 222 224 230 207 186 190 178 167 173 178 178 183 174 173 169 172 178 179 183 193 188
236 233 215 217 206 188 179 175 180 181 181 183 186 182 182 183 187 191 192 186 185 179
231 231 220 209 206 193 187 189 193 194 189 186 187 190 190 191 194 194 187 196 190 188